01.01.2020 00:15;-13186
01.01.2020 00:30;-11739
01.01.2020 00:45;-9814
01.01.2020 01:00;-8337
01.01.2020 01:15;-7758
01.01.2020 01:30;-8929
01.01.2020 01:45;-7669
01.01.2020 02:00;-7476
01.01.2020 02:15;11422
01.01.2020 02:30;10476
01.01.2020 02:45;11230
01.01.2020 03:00;12836
01.01.2020 03:15;14578
01.01.2020 03:30;16662
01.01.2020 03:45;17289
01.01.2020 04:00;18316
01.01.2020 04:15;20810
01.01.2020 04:30;22427
01.01.2020 04:45;23642
01.01.2020 05:00;25522
01.01.2020 05:15;26251
01.01.2020 05:30;24740
01.01.2020 05:45;21461
01.01.2020 06:00;21215
01.01.2020 06:15;22737
01.01.2020 06:30;21781
01.01.2020 06:45;21479
01.01.2020 07:00;20346
01.01.2020 07:15;20252
01.01.2020 07:30;18846
01.01.2020 07:45;16880
01.01.2020 08:00;13315
01.01.2020 08:15;10038
01.01.2020 08:30;1755
01.01.2020 08:45;-5493
01.01.2020 09:00;-12680
01.01.2020 09:15;-19326
01.01.2020 09:30;-25340
01.01.2020 09:45;-29953
01.01.2020 10:00;-34974
01.01.2020 10:15;-38344
01.01.2020 10:30;-41374
01.01.2020 10:45;-44705
01.01.2020 11:00;-47791
01.01.2020 11:15;-51182
01.01.2020 11:30;-52642
01.01.2020 11:45;-54393
01.01.2020 12:00;-55735
01.01.2020 12:15;-56339
01.01.2020 12:30;-55340
01.01.2020 12:45;-51756
01.01.2020 13:00;-47282
01.01.2020 13:15;-42009
01.01.2020 13:30;-36029
01.01.2020 13:45;-28609
01.01.2020 14:00;-21841
01.01.2020 14:15;-23380
01.01.2020 14:30;-18431
01.01.2020 14:45;-14892
01.01.2020 15:00;-4850
01.01.2020 15:15;872
01.01.2020 15:30;3860
01.01.2020 15:45;5615
01.01.2020 16:00;9724
01.01.2020 16:15;14803
01.01.2020 16:30;19332
01.01.2020 16:45;23697
01.01.2020 17:00;23690
01.01.2020 17:15;27725
01.01.2020 17:30;25703
01.01.2020 17:45;22132
01.01.2020 18:00;17048
01.01.2020 18:15;10894
01.01.2020 18:30;5981
01.01.2020 18:45;704
01.01.2020 19:00;-4700
01.01.2020 19:15;-9332
01.01.2020 19:30;-15172
01.01.2020 19:45;-19235
01.01.2020 20:00;-20106
01.01.2020 20:15;-17922
01.01.2020 20:30;-14748
01.01.2020 20:45;-11145
01.01.2020 21:00;-8471
01.01.2020 21:15;-6542
01.01.2020 21:30;-4164
01.01.2020 21:45;4239
01.01.2020 22:00;11713
01.01.2020 22:15;2510
01.01.2020 22:30;-11733
01.01.2020 22:45;-10026
01.01.2020 23:00;-8110
01.01.2020 23:15;-6957
01.01.2020 23:30;-5619
01.01.2020 23:45;-5574
02.01.2020 00:00;-5355
02.01.2020 00:15;-4697
02.01.2020 00:30;-5054
02.01.2020 00:45;-4701
02.01.2020 01:00;-5293
02.01.2020 01:15;-6638
02.01.2020 01:30;-7107
02.01.2020 01:45;-8359
02.01.2020 02:00;-8947
02.01.2020 02:15;6848
02.01.2020 02:30;8210
02.01.2020 02:45;10328
02.01.2020 03:00;13399
02.01.2020 03:15;16493
02.01.2020 03:30;18169
02.01.2020 03:45;20334
02.01.2020 04:00;22121
02.01.2020 04:15;24351
02.01.2020 04:30;25625
02.01.2020 04:45;26851
02.01.2020 05:00;26464
02.01.2020 05:15;26226
02.01.2020 05:30;23180
02.01.2020 05:45;18731
02.01.2020 06:00;15064
02.01.2020 06:15;9831
02.01.2020 06:30;2059
02.01.2020 06:45;-6430
02.01.2020 07:00;-14457
02.01.2020 07:15;-20268
02.01.2020 07:30;-25706
02.01.2020 07:45;-28798
02.01.2020 08:00;-31501
02.01.2020 08:15;-28237
02.01.2020 08:30;-30965
02.01.2020 08:45;-29979
02.01.2020 09:00;-27364
02.01.2020 09:15;-23849
02.01.2020 09:30;-20279
02.01.2020 09:45;-15999
02.01.2020 10:00;-12712
02.01.2020 10:15;-9932
02.01.2020 10:30;-7913
02.01.2020 10:45;-6098
02.01.2020 11:00;-4474
02.01.2020 11:15;-3642
02.01.2020 11:30;-1361
02.01.2020 11:45;357
02.01.2020 12:00;252
02.01.2020 12:15;-1543
02.01.2020 12:30;-3148
02.01.2020 12:45;-4629
02.01.2020 13:00;-5250
02.01.2020 13:15;-3905
02.01.2020 13:30;-2415
02.01.2020 13:45;1745
02.01.2020 14:00;3915
02.01.2020 14:15;-886
02.01.2020 14:30;596
02.01.2020 14:45;2602
02.01.2020 15:00;8259
02.01.2020 15:15;9586
02.01.2020 15:30;10597
02.01.2020 15:45;10541
02.01.2020 16:00;10968
02.01.2020 16:15;13971
02.01.2020 16:30;16718
02.01.2020 16:45;18787
02.01.2020 17:00;17497
02.01.2020 17:15;21901
02.01.2020 17:30;20503
02.01.2020 17:45;17004
02.01.2020 18:00;12353
02.01.2020 18:15;7086
02.01.2020 18:30;401
02.01.2020 18:45;-4914
02.01.2020 19:00;-10162
02.01.2020 19:15;-15116
02.01.2020 19:30;-18486
02.01.2020 19:45;-20135
02.01.2020 20:00;-19930
02.01.2020 20:15;-18208
02.01.2020 20:30;-16591
02.01.2020 20:45;-13054
02.01.2020 21:00;-10218
02.01.2020 21:15;-8587
02.01.2020 21:30;-5240
02.01.2020 21:45;3427
02.01.2020 22:00;12544
02.01.2020 22:15;3492
02.01.2020 22:30;-10598
02.01.2020 22:45;-8959
02.01.2020 23:00;-7896
02.01.2020 23:15;-7382
02.01.2020 23:30;-6852
02.01.2020 23:45;-7099
03.01.2020 00:00;-6649
03.01.2020 00:15;-2791
03.01.2020 00:30;-1844
03.01.2020 00:45;-2219
03.01.2020 01:00;-1077
03.01.2020 01:15;497
03.01.2020 01:30;2491
03.01.2020 01:45;3411
03.01.2020 02:00;5560
03.01.2020 02:15;11259
03.01.2020 02:30;13399
03.01.2020 02:45;16665
03.01.2020 03:00;20165
03.01.2020 03:15;22577
03.01.2020 03:30;24933
03.01.2020 03:45;25462
03.01.2020 04:00;26385
03.01.2020 04:15;27666
03.01.2020 04:30;27801
03.01.2020 04:45;28357
03.01.2020 05:00;27374
03.01.2020 05:15;28112
03.01.2020 05:30;24379
03.01.2020 05:45;19291
03.01.2020 06:00;15353
03.01.2020 06:15;10323
03.01.2020 06:30;2148
03.01.2020 06:45;-6422
03.01.2020 07:00;-14203
03.01.2020 07:15;-20495
03.01.2020 07:30;-25756
03.01.2020 07:45;-29372
03.01.2020 08:00;-31690
03.01.2020 08:15;-29290
03.01.2020 08:30;-30782
03.01.2020 08:45;-30879
03.01.2020 09:00;-28475
03.01.2020 09:15;-24926
03.01.2020 09:30;-21793
03.01.2020 09:45;-17060
03.01.2020 10:00;-14183
03.01.2020 10:15;-11543
03.01.2020 10:30;-9387
03.01.2020 10:45;-6961
03.01.2020 11:00;-6428
03.01.2020 11:15;-4740
03.01.2020 11:30;-3322
03.01.2020 11:45;-2459
03.01.2020 12:00;-2860
03.01.2020 12:15;-6025
03.01.2020 12:30;-8663
03.01.2020 12:45;-10418
03.01.2020 13:00;-11380
03.01.2020 13:15;-10660
03.01.2020 13:30;-8055
03.01.2020 13:45;-4368
03.01.2020 14:00;-1186
03.01.2020 14:15;-5756
03.01.2020 14:30;-4498
03.01.2020 14:45;-986
03.01.2020 15:00;1538
03.01.2020 15:15;3929
03.01.2020 15:30;5728
03.01.2020 15:45;7055
03.01.2020 16:00;8569
03.01.2020 16:15;11349
03.01.2020 16:30;13783
03.01.2020 16:45;16566
03.01.2020 17:00;15369
03.01.2020 17:15;19053
03.01.2020 17:30;18443
03.01.2020 17:45;14489
03.01.2020 18:00;9523
03.01.2020 18:15;3796
03.01.2020 18:30;-2679
03.01.2020 18:45;-9445
03.01.2020 19:00;-14510
03.01.2020 19:15;-19286
03.01.2020 19:30;-23324
03.01.2020 19:45;-24555
03.01.2020 20:00;-23842
03.01.2020 20:15;-22810
03.01.2020 20:30;-19698
03.01.2020 20:45;-16884
03.01.2020 21:00;-13446
03.01.2020 21:15;-12188
03.01.2020 21:30;-8071
03.01.2020 21:45;424
03.01.2020 22:00;7763
03.01.2020 22:15;-545
03.01.2020 22:30;-14821
03.01.2020 22:45;-13590
03.01.2020 23:00;-12399
03.01.2020 23:15;-11667
03.01.2020 23:30;-10507
03.01.2020 23:45;-9777
04.01.2020 00:00;-8801
04.01.2020 00:15;-10805
04.01.2020 00:30;-12940
04.01.2020 00:45;-14909
04.01.2020 01:00;-13062
04.01.2020 01:15;-10652
04.01.2020 01:30;-8249
04.01.2020 01:45;-5024
04.01.2020 02:00;-2302
04.01.2020 02:15;2835
04.01.2020 02:30;8737
04.01.2020 02:45;12706
04.01.2020 03:00;16394
04.01.2020 03:15;19697
04.01.2020 03:30;20932
04.01.2020 03:45;22247
04.01.2020 04:00;23537
04.01.2020 04:15;25637
04.01.2020 04:30;27137
04.01.2020 04:45;27300
04.01.2020 05:00;26600
04.01.2020 05:15;26383
04.01.2020 05:30;23275
04.01.2020 05:45;18564
04.01.2020 06:00;18115
04.01.2020 06:15;18779
04.01.2020 06:30;17667
04.01.2020 06:45;15451
04.01.2020 07:00;12874
04.01.2020 07:15;10272
04.01.2020 07:30;6139
04.01.2020 07:45;2243
04.01.2020 08:00;-2057
04.01.2020 08:15;-4014
04.01.2020 08:30;-9356
04.01.2020 08:45;-12937
04.01.2020 09:00;-16008
04.01.2020 09:15;-17786
04.01.2020 09:30;-18301
04.01.2020 09:45;-17610
04.01.2020 10:00;-17987
04.01.2020 10:15;-17697
04.01.2020 10:30;-16941
04.01.2020 10:45;-16985
04.01.2020 11:00;-16099
04.01.2020 11:15;-14225
04.01.2020 11:30;-12509
04.01.2020 11:45;-12375
04.01.2020 12:00;-11897
04.01.2020 12:15;-13373
04.01.2020 12:30;-14500
04.01.2020 12:45;-16107
04.01.2020 13:00;-17687
04.01.2020 13:15;-16774
04.01.2020 13:30;-16132
04.01.2020 13:45;-14282
04.01.2020 14:00;-11025
04.01.2020 14:15;-16146
04.01.2020 14:30;-13156
04.01.2020 14:45;-6808
04.01.2020 15:00;-2191
04.01.2020 15:15;933
04.01.2020 15:30;2250
04.01.2020 15:45;3704
04.01.2020 16:00;4594
04.01.2020 16:15;6654
04.01.2020 16:30;7760
04.01.2020 16:45;8766
04.01.2020 17:00;5897
04.01.2020 17:15;5755
04.01.2020 17:30;406
04.01.2020 17:45;-6264
04.01.2020 18:00;-13428
04.01.2020 18:15;-18064
04.01.2020 18:30;-22762
04.01.2020 18:45;-24440
04.01.2020 19:00;-27262
04.01.2020 19:15;-30984
04.01.2020 19:30;-33396
04.01.2020 19:45;-33502
04.01.2020 20:00;-31455
04.01.2020 20:15;-27026
04.01.2020 20:30;-20496
04.01.2020 20:45;-14142
04.01.2020 21:00;-8100
04.01.2020 21:15;-3928
04.01.2020 21:30;1044
04.01.2020 21:45;9121
04.01.2020 22:00;15294
04.01.2020 22:15;3866
04.01.2020 22:30;-11689
04.01.2020 22:45;-13038
04.01.2020 23:00;-13124
04.01.2020 23:15;-14259
04.01.2020 23:30;-13889
04.01.2020 23:45;-13490
05.01.2020 00:00;-13844
05.01.2020 00:15;-10945
05.01.2020 00:30;-9306
05.01.2020 00:45;-5811
05.01.2020 01:00;-2779
05.01.2020 01:15;976
05.01.2020 01:30;4868
05.01.2020 01:45;7330
05.01.2020 02:00;9005
05.01.2020 02:15;12278
05.01.2020 02:30;16770
05.01.2020 02:45;20894
05.01.2020 03:00;22297
05.01.2020 03:15;24251
05.01.2020 03:30;25220
05.01.2020 03:45;26360
05.01.2020 04:00;26875
05.01.2020 04:15;27407
05.01.2020 04:30;27909
05.01.2020 04:45;27847
05.01.2020 05:00;27001
05.01.2020 05:15;26740
05.01.2020 05:30;24237
05.01.2020 05:45;19803
05.01.2020 06:00;20340
05.01.2020 06:15;22301
05.01.2020 06:30;22105
05.01.2020 06:45;22303
05.01.2020 07:00;22946
05.01.2020 07:15;23654
05.01.2020 07:30;23926
05.01.2020 07:45;23031
05.01.2020 08:00;21013
05.01.2020 08:15;21078
05.01.2020 08:30;14548
05.01.2020 08:45;8593
05.01.2020 09:00;2928
05.01.2020 09:15;-2622
05.01.2020 09:30;-7091
05.01.2020 09:45;-10687
05.01.2020 10:00;-13547
05.01.2020 10:15;-16371
05.01.2020 10:30;-18898
05.01.2020 10:45;-20851
05.01.2020 11:00;-23772
05.01.2020 11:15;-26722
05.01.2020 11:30;-28088
05.01.2020 11:45;-28476
05.01.2020 12:00;-29351
05.01.2020 12:15;-29664
05.01.2020 12:30;-28718
05.01.2020 12:45;-26474
05.01.2020 13:00;-23158
05.01.2020 13:15;-19460
05.01.2020 13:30;-12948
05.01.2020 13:45;-5414
05.01.2020 14:00;351
05.01.2020 14:15;-2174
05.01.2020 14:30;3183
05.01.2020 14:45;11687
05.01.2020 15:00;15479
05.01.2020 15:15;17906
05.01.2020 15:30;20413
05.01.2020 15:45;21487
05.01.2020 16:00;24017
05.01.2020 16:15;26992
05.01.2020 16:30;30626
05.01.2020 16:45;34271
05.01.2020 17:00;32157
05.01.2020 17:15;35523
05.01.2020 17:30;33421
05.01.2020 17:45;29421
05.01.2020 18:00;24469
05.01.2020 18:15;18916
05.01.2020 18:30;12395
05.01.2020 18:45;6853
05.01.2020 19:00;1378
05.01.2020 19:15;-4710
05.01.2020 19:30;-10632
05.01.2020 19:45;-14838
05.01.2020 20:00;-16722
05.01.2020 20:15;-15679
05.01.2020 20:30;-13716
05.01.2020 20:45;-10340
05.01.2020 21:00;-7330
05.01.2020 21:15;-6710
05.01.2020 21:30;-3933
05.01.2020 21:45;2839
05.01.2020 22:00;10414
05.01.2020 22:15;1464
05.01.2020 22:30;-14238
05.01.2020 22:45;-12499
05.01.2020 23:00;-11575
05.01.2020 23:15;-11006
05.01.2020 23:30;-9858
05.01.2020 23:45;-9314
06.01.2020 00:00;-7407
06.01.2020 00:15;-13693
06.01.2020 00:30;-13388
06.01.2020 00:45;-13825
06.01.2020 01:00;-12213
06.01.2020 01:15;-12001
06.01.2020 01:30;-8691
06.01.2020 01:45;-8433
06.01.2020 02:00;-7365
06.01.2020 02:15;3102
06.01.2020 02:30;6491
06.01.2020 02:45;11018
06.01.2020 03:00;14695
06.01.2020 03:15;18038
06.01.2020 03:30;21043
06.01.2020 03:45;22225
06.01.2020 04:00;23706
06.01.2020 04:15;25408
06.01.2020 04:30;26165
06.01.2020 04:45;27126
06.01.2020 05:00;27098
06.01.2020 05:15;28454
06.01.2020 05:30;25916
06.01.2020 05:45;21018
06.01.2020 06:00;18152
06.01.2020 06:15;14954
06.01.2020 06:30;6673
06.01.2020 06:45;-650
06.01.2020 07:00;-7123
06.01.2020 07:15;-12485
06.01.2020 07:30;-16982
06.01.2020 07:45;-19723
06.01.2020 08:00;-22451
06.01.2020 08:15;-21681
06.01.2020 08:30;-23069
06.01.2020 08:45;-24077
06.01.2020 09:00;-23037
06.01.2020 09:15;-20335
06.01.2020 09:30;-17278
06.01.2020 09:45;-14547
06.01.2020 10:00;-11575
06.01.2020 10:15;-9026
06.01.2020 10:30;-7435
06.01.2020 10:45;-6313
06.01.2020 11:00;-5495
06.01.2020 11:15;-4294
06.01.2020 11:30;-3110
06.01.2020 11:45;-2339
06.01.2020 12:00;-1915
06.01.2020 12:15;-4062
06.01.2020 12:30;-5688
06.01.2020 12:45;-6624
06.01.2020 13:00;-7334
06.01.2020 13:15;-6381
06.01.2020 13:30;-4473
06.01.2020 13:45;-537
06.01.2020 14:00;2945
06.01.2020 14:15;-1798
06.01.2020 14:30;-40
06.01.2020 14:45;3744
06.01.2020 15:00;8972
06.01.2020 15:15;10353
06.01.2020 15:30;11467
06.01.2020 15:45;11751
06.01.2020 16:00;13387
06.01.2020 16:15;16135
06.01.2020 16:30;19071
06.01.2020 16:45;21344
06.01.2020 17:00;20805
06.01.2020 17:15;25028
06.01.2020 17:30;24038
06.01.2020 17:45;21254
06.01.2020 18:00;16950
06.01.2020 18:15;10924
06.01.2020 18:30;5736
06.01.2020 18:45;-1171
06.01.2020 19:00;-7139
06.01.2020 19:15;-11868
06.01.2020 19:30;-14336
06.01.2020 19:45;-16415
06.01.2020 20:00;-15379
06.01.2020 20:15;-14154
06.01.2020 20:30;-12281
06.01.2020 20:45;-9388
06.01.2020 21:00;-7533
06.01.2020 21:15;-6267
06.01.2020 21:30;-4207
06.01.2020 21:45;4025
06.01.2020 22:00;11118
06.01.2020 22:15;1397
06.01.2020 22:30;-13320
06.01.2020 22:45;-12169
06.01.2020 23:00;-12199
06.01.2020 23:15;-11341
06.01.2020 23:30;-9675
06.01.2020 23:45;-9416
07.01.2020 00:00;-9525
07.01.2020 00:15;-6830
07.01.2020 00:30;-5780
07.01.2020 00:45;-6504
07.01.2020 01:00;-4557
07.01.2020 01:15;-2683
07.01.2020 01:30;43
07.01.2020 01:45;805
07.01.2020 02:00;2865
07.01.2020 02:15;7566
07.01.2020 02:30;10658
07.01.2020 02:45;15310
07.01.2020 03:00;18431
07.01.2020 03:15;21506
07.01.2020 03:30;22921
07.01.2020 03:45;23679
07.01.2020 04:00;23821
07.01.2020 04:15;25528
07.01.2020 04:30;27323
07.01.2020 04:45;27184
07.01.2020 05:00;27228
07.01.2020 05:15;28542
07.01.2020 05:30;26308
07.01.2020 05:45;22046
07.01.2020 06:00;20839
07.01.2020 06:15;19106
07.01.2020 06:30;13327
07.01.2020 06:45;6857
07.01.2020 07:00;363
07.01.2020 07:15;-5605
07.01.2020 07:30;-12319
07.01.2020 07:45;-17186
07.01.2020 08:00;-20373
07.01.2020 08:15;-18861
07.01.2020 08:30;-23313
07.01.2020 08:45;-24712
07.01.2020 09:00;-25349
07.01.2020 09:15;-24513
07.01.2020 09:30;-22867
07.01.2020 09:45;-23551
07.01.2020 10:00;-22114
07.01.2020 10:15;-19101
07.01.2020 10:30;-16875
07.01.2020 10:45;-17252
07.01.2020 11:00;-18071
07.01.2020 11:15;-17410
07.01.2020 11:30;-15490
07.01.2020 11:45;-17158
07.01.2020 12:00;-19119
07.01.2020 12:15;-22715
07.01.2020 12:30;-27379
07.01.2020 12:45;-27285
07.01.2020 13:00;-27401
07.01.2020 13:15;-24529
07.01.2020 13:30;-22822
07.01.2020 13:45;-20006
07.01.2020 14:00;-17347
07.01.2020 14:15;-21392
07.01.2020 14:30;-18087
07.01.2020 14:45;-14730
07.01.2020 15:00;-9286
07.01.2020 15:15;-6680
07.01.2020 15:30;-5458
07.01.2020 15:45;-3808
07.01.2020 16:00;-2009
07.01.2020 16:15;1766
07.01.2020 16:30;4668
07.01.2020 16:45;7462
07.01.2020 17:00;6719
07.01.2020 17:15;11343
07.01.2020 17:30;13685
07.01.2020 17:45;11107
07.01.2020 18:00;8491
07.01.2020 18:15;2904
07.01.2020 18:30;-2386
07.01.2020 18:45;-8370
07.01.2020 19:00;-12653
07.01.2020 19:15;-16805
07.01.2020 19:30;-20193
07.01.2020 19:45;-22195
07.01.2020 20:00;-21769
07.01.2020 20:15;-20768
07.01.2020 20:30;-17073
07.01.2020 20:45;-14192
07.01.2020 21:00;-11613
07.01.2020 21:15;-10280
07.01.2020 21:30;-6924
07.01.2020 21:45;1048
07.01.2020 22:00;6978
07.01.2020 22:15;-1915
07.01.2020 22:30;-16992
07.01.2020 22:45;-15093
07.01.2020 23:00;-15398
07.01.2020 23:15;-14685
07.01.2020 23:30;-14696
07.01.2020 23:45;-14137
08.01.2020 00:00;-14947
08.01.2020 00:15;-13360
08.01.2020 00:30;-12428
08.01.2020 00:45;-11386
08.01.2020 01:00;-7739
08.01.2020 01:15;-4305
08.01.2020 01:30;-2996
08.01.2020 01:45;-571
08.01.2020 02:00;733
08.01.2020 02:15;4249
08.01.2020 02:30;9595
08.01.2020 02:45;14106
08.01.2020 03:00;16927
08.01.2020 03:15;19902
08.01.2020 03:30;21559
08.01.2020 03:45;23187
08.01.2020 04:00;23895
08.01.2020 04:15;25785
08.01.2020 04:30;26409
08.01.2020 04:45;26631
08.01.2020 05:00;26401
08.01.2020 05:15;27828
08.01.2020 05:30;25995
08.01.2020 05:45;22036
08.01.2020 06:00;19460
08.01.2020 06:15;18139
08.01.2020 06:30;12641
08.01.2020 06:45;5811
08.01.2020 07:00;-822
08.01.2020 07:15;-6916
08.01.2020 07:30;-12352
08.01.2020 07:45;-17672
08.01.2020 08:00;-21045
08.01.2020 08:15;-19653
08.01.2020 08:30;-23244
08.01.2020 08:45;-24946
08.01.2020 09:00;-24896
08.01.2020 09:15;-23184
08.01.2020 09:30;-21182
08.01.2020 09:45;-18746
08.01.2020 10:00;-16761
08.01.2020 10:15;-14456
08.01.2020 10:30;-13101
08.01.2020 10:45;-13202
08.01.2020 11:00;-11496
08.01.2020 11:15;-10534
08.01.2020 11:30;-9144
08.01.2020 11:45;-8617
08.01.2020 12:00;-8678
08.01.2020 12:15;-11826
08.01.2020 12:30;-12261
08.01.2020 12:45;-12984
08.01.2020 13:00;-14039
08.01.2020 13:15;-12624
08.01.2020 13:30;-9008
08.01.2020 13:45;-4895
08.01.2020 14:00;-1710
08.01.2020 14:15;-7565
08.01.2020 14:30;-5286
08.01.2020 14:45;1023
08.01.2020 15:00;4293
08.01.2020 15:15;6065
08.01.2020 15:30;6995
08.01.2020 15:45;7759
08.01.2020 16:00;8352
08.01.2020 16:15;11399
08.01.2020 16:30;13408
08.01.2020 16:45;15828
08.01.2020 17:00;15251
08.01.2020 17:15;18109
08.01.2020 17:30;17083
08.01.2020 17:45;13733
08.01.2020 18:00;9713
08.01.2020 18:15;3798
08.01.2020 18:30;-2112
08.01.2020 18:45;-8896
08.01.2020 19:00;-14181
08.01.2020 19:15;-19601
08.01.2020 19:30;-21818
08.01.2020 19:45;-24161
08.01.2020 20:00;-23412
08.01.2020 20:15;-22093
08.01.2020 20:30;-20181
08.01.2020 20:45;-16963
08.01.2020 21:00;-14624
08.01.2020 21:15;-13616
08.01.2020 21:30;-10791
08.01.2020 21:45;-2912
08.01.2020 22:00;3419
08.01.2020 22:15;-5065
08.01.2020 22:30;-19584
08.01.2020 22:45;-19147
08.01.2020 23:00;-19330
08.01.2020 23:15;-19088
08.01.2020 23:30;-18855
08.01.2020 23:45;-18860
09.01.2020 00:00;-18697
09.01.2020 00:15;-7758
09.01.2020 00:30;-4260
09.01.2020 00:45;-2602
09.01.2020 01:00;2218
09.01.2020 01:15;4222
09.01.2020 01:30;6987
09.01.2020 01:45;9077
09.01.2020 02:00;10172
09.01.2020 02:15;10950
09.01.2020 02:30;13201
09.01.2020 02:45;15372
09.01.2020 03:00;16842
09.01.2020 03:15;18722
09.01.2020 03:30;20330
09.01.2020 03:45;21334
09.01.2020 04:00;22804
09.01.2020 04:15;24424
09.01.2020 04:30;24984
09.01.2020 04:45;24965
09.01.2020 05:00;25287
09.01.2020 05:15;26593
09.01.2020 05:30;24718
09.01.2020 05:45;20851
09.01.2020 06:00;17440
09.01.2020 06:15;15745
09.01.2020 06:30;10719
09.01.2020 06:45;4050
09.01.2020 07:00;-2633
09.01.2020 07:15;-8431
09.01.2020 07:30;-14050
09.01.2020 07:45;-19620
09.01.2020 08:00;-22878
09.01.2020 08:15;-20248
09.01.2020 08:30;-24571
09.01.2020 08:45;-26139
09.01.2020 09:00;-26318
09.01.2020 09:15;-24667
09.01.2020 09:30;-22772
09.01.2020 09:45;-20086
09.01.2020 10:00;-17615
09.01.2020 10:15;-15414
09.01.2020 10:30;-13643
09.01.2020 10:45;-13129
09.01.2020 11:00;-13824
09.01.2020 11:15;-12035
09.01.2020 11:30;-10250
09.01.2020 11:45;-9876
09.01.2020 12:00;-11284
09.01.2020 12:15;-14158
09.01.2020 12:30;-15980
09.01.2020 12:45;-17453
09.01.2020 13:00;-17708
09.01.2020 13:15;-15774
09.01.2020 13:30;-13101
09.01.2020 13:45;-9483
09.01.2020 14:00;-6504
09.01.2020 14:15;-11283
09.01.2020 14:30;-6858
09.01.2020 14:45;-2606
09.01.2020 15:00;-868
09.01.2020 15:15;263
09.01.2020 15:30;1286
09.01.2020 15:45;1478
09.01.2020 16:00;2715
09.01.2020 16:15;5943
09.01.2020 16:30;9087
09.01.2020 16:45;12355
09.01.2020 17:00;12452
09.01.2020 17:15;16183
09.01.2020 17:30;15137
09.01.2020 17:45;12473
09.01.2020 18:00;8034
09.01.2020 18:15;1863
09.01.2020 18:30;-4038
09.01.2020 18:45;-10393
09.01.2020 19:00;-14634
09.01.2020 19:15;-19241
09.01.2020 19:30;-22115
09.01.2020 19:45;-24633
09.01.2020 20:00;-24326
09.01.2020 20:15;-22751
09.01.2020 20:30;-20715
09.01.2020 20:45;-17721
09.01.2020 21:00;-14519
09.01.2020 21:15;-13934
09.01.2020 21:30;-11138
09.01.2020 21:45;-3466
09.01.2020 22:00;3834
09.01.2020 22:15;-6283
09.01.2020 22:30;-22512
09.01.2020 22:45;-20741
09.01.2020 23:00;-20338
09.01.2020 23:15;-19892
09.01.2020 23:30;-18320
09.01.2020 23:45;-15985
10.01.2020 00:00;-13015
10.01.2020 00:15;-3153
10.01.2020 00:30;163
10.01.2020 00:45;3015
10.01.2020 01:00;6696
10.01.2020 01:15;9327
10.01.2020 01:30;11657
10.01.2020 01:45;12374
10.01.2020 02:00;12643
10.01.2020 02:15;13038
10.01.2020 02:30;13782
10.01.2020 02:45;16156
10.01.2020 03:00;17410
10.01.2020 03:15;18283
10.01.2020 03:30;20068
10.01.2020 03:45;21828
10.01.2020 04:00;24134
10.01.2020 04:15;25776
10.01.2020 04:30;26455
10.01.2020 04:45;26814
10.01.2020 05:00;26442
10.01.2020 05:15;27944
10.01.2020 05:30;26606
10.01.2020 05:45;22606
10.01.2020 06:00;18606
10.01.2020 06:15;16266
10.01.2020 06:30;10982
10.01.2020 06:45;4543
10.01.2020 07:00;-1882
10.01.2020 07:15;-6855
10.01.2020 07:30;-12442
10.01.2020 07:45;-16886
10.01.2020 08:00;-19347
10.01.2020 08:15;-19591
10.01.2020 08:30;-23113
10.01.2020 08:45;-24128
10.01.2020 09:00;-24824
10.01.2020 09:15;-22833
10.01.2020 09:30;-21548
10.01.2020 09:45;-21036
10.01.2020 10:00;-20526
10.01.2020 10:15;-19116
10.01.2020 10:30;-18861
10.01.2020 10:45;-19477
10.01.2020 11:00;-20065
10.01.2020 11:15;-17809
10.01.2020 11:30;-16256
10.01.2020 11:45;-13554
10.01.2020 12:00;-15502
10.01.2020 12:15;-17296
10.01.2020 12:30;-17971
10.01.2020 12:45;-19044
10.01.2020 13:00;-22791
10.01.2020 13:15;-19716
10.01.2020 13:30;-14654
10.01.2020 13:45;-8172
10.01.2020 14:00;-5484
10.01.2020 14:15;-13053
10.01.2020 14:30;-8071
10.01.2020 14:45;-2247
10.01.2020 15:00;-1279
10.01.2020 15:15;2169
10.01.2020 15:30;3240
10.01.2020 15:45;6106
10.01.2020 16:00;8202
10.01.2020 16:15;10151
10.01.2020 16:30;11015
10.01.2020 16:45;12372
10.01.2020 17:00;10153
10.01.2020 17:15;13123
10.01.2020 17:30;16018
10.01.2020 17:45;12592
10.01.2020 18:00;7518
10.01.2020 18:15;2240
10.01.2020 18:30;-3517
10.01.2020 18:45;-10382
10.01.2020 19:00;-16232
10.01.2020 19:15;-20992
10.01.2020 19:30;-24844
10.01.2020 19:45;-25808
10.01.2020 20:00;-25202
10.01.2020 20:15;-24634
10.01.2020 20:30;-21170
10.01.2020 20:45;-17728
10.01.2020 21:00;-14333
10.01.2020 21:15;-13209
10.01.2020 21:30;-9771
10.01.2020 21:45;-1490
10.01.2020 22:00;5252
10.01.2020 22:15;-3432
10.01.2020 22:30;-16462
10.01.2020 22:45;-14616
10.01.2020 23:00;-13040
10.01.2020 23:15;-11485
10.01.2020 23:30;-7713
10.01.2020 23:45;-2587
11.01.2020 00:00;1334
11.01.2020 00:15;-9950
11.01.2020 00:30;-9203
11.01.2020 00:45;-8538
11.01.2020 01:00;-8153
11.01.2020 01:15;-5527
11.01.2020 01:30;-2425
11.01.2020 01:45;1122
11.01.2020 02:00;4941
11.01.2020 02:15;9405
11.01.2020 02:30;13352
11.01.2020 02:45;15285
11.01.2020 03:00;16738
11.01.2020 03:15;19072
11.01.2020 03:30;20959
11.01.2020 03:45;22779
11.01.2020 04:00;24148
11.01.2020 04:15;25483
11.01.2020 04:30;25932
11.01.2020 04:45;26200
11.01.2020 05:00;26208
11.01.2020 05:15;26383
11.01.2020 05:30;24076
11.01.2020 05:45;19649
11.01.2020 06:00;18827
11.01.2020 06:15;19758
11.01.2020 06:30;18207
11.01.2020 06:45;16545
11.01.2020 07:00;13926
11.01.2020 07:15;12010
11.01.2020 07:30;7830
11.01.2020 07:45;4854